SCP
0 0 0 0 2 3 3 1 1 2 3 3 2 2 2 1 2 1 2 3 1 1 1 1 2 2 1 2 2 2 2 2 1 1 2 2 2 2 2 1 0 0 0
0 0 0 0 1 2 2 2 2 2 2 2 2 2 2 2 2 3 3 2 1 1 1 1 2 2 2 2 2 2 1 1 2 3 2 2 1 1 1 1 0 0 0
0 0 0 1 1 1 2 2 3 3 2 3 4 4 3 4 2 2 2 1 1 2 2 2 2 2 2 1 2 2 2 2 1 1 2 1 1 1 0 0 0 0 0
-0 0 0 1 1 1 2 3 3 3 3 2 2 2 1 2 3 3 3 3 2 2 2 2 2 2 2 2 2 2 2 1 1 2 2 1 1 1 0 0 0 0 0
0 0 0 0 1 2 2 3 4 3 2 2 2 1 1 2 2 3 2 3 2 2 1 1 1 1 1 1 1 1 1 1 1 2 2 2 2 1 1 0 0 0 0
0 0 0 0 1 1 1 1 2 2 2 2 2 2 2 2 2 2 1 2 1 1 1 0 1 0 0 0 0 0 0 1 1 1 1 1 1 2 2 2 2 1 0
0 0 0 1 1 1 1 1 2 2 2 2 2 3 3 4 3 1 2 1 1 0 0 0 0 0 0 0 0 0 0 0 0 0 0 0 0 1 0 0 0 0 0
0 0 0 1 1 1 1 1 1 1 2 1 1 2 2 2 1 1 0 0 0 0 0 0 0 0 0 0 0 0 0 0 0 0 0 0 0 0 0 0 0 0 0
0 1 1 1 1 1 1 1 1 1 1 1 1 1 0 0 0 0 0 0 0 0 0 0 0 0 0 0 0 0 0 0 0 0 0 0 0 0 0 0 0 0 0
0 0 1 1 1 1 2 1 1 1 0 0 0 0 0 0 0 0 0 0 0 0 0 0 0 0 0 0 0 0 0 0 0 0 0 0 0 0 0 0 0 0 0
0 0 0 0 0 0 0 0 0 0 0 0 0 0 0 0 0 0 0 0 0 0 0 0 0 0 0 0 0 0 0 0 0 0 0 0 0 0 0 0 0 0 0
0 0 0 0 0 0 0 0 0 0 0 0 0 0 0 0 0 0 0 0 0 0 0 0 0 0 0 0 0 0 0 0 0 0 0 0 0 0 0 0 0 0 0
0 0 0 0 0 0 0 0 0 0 0 0 0 0 0 0 0 0 0 0 0 0 0 0 0 0 0 0 0 0 0 0 0 0 0 0 0 0 0 0 0 0 0
0 0 0 0 0 0 0 0 0 0 0 0 0 0 0 0 0 0 0 0 0 0 0 0 0 0 0 0 0 0 0 0 0 0 0 0 0 0 0 0 0 0 0
0 0 0 0 0 0 0 0 0 0 0 0 0 0 0 0 0 0 0 0 0 0 0 0 0 0 0 0 0 0 0 0 0 0 0 0 0 -0 0 0 0 0 0
0 0 0 0 0 0 0 0 0 0 0 0 0 0 0 0 0 0 0 0 0 0 0 0 0 0 0 0 0 0 0 0 0 0 0 -0 -0 -0 -0 -0 0 0 0
0 0 0 0 0 0 0 0 0 0 0 0 0 0 0 0 0 0 0 0 0 0 0 0 0 0 0 0 0 0 0 0 0 0 0 0 0 0 0 -0 -0 0 0
0 0 0 0 0 0 0 0 0 0 0 0 0 0 0 0 0 0 0 0 0 0 0 0 0 0 0 0 0 0 0 0 0 -0 -0 0 0 0 -0 -0 -0 -0 -0
0 0 0 0 0 0 0 0 0 0 0 0 0 0 0 0 0 0 0 0 0 0 0 0 0 0 0 0 0 0 -0 0 -0 0 0 0 0 0 -0 -0 0 -0 -0
0 0 0 0 0 0 0 0 0 0 0 0 0 0 0 0 0 0 0 0 0 0 0 0 0 0 0 0 0 0 -0 0 0 0 0 0 0 -0 -0 -0 -0 -0 0
0 0 0 0 0 0 0 0 0 0 0 0 0 0 0 0 0 0 0 0 0 0 0 0 0 0 0 0 0 0 0 0 0 0 0 0 -0 -0 -0 -0 -0 -0 -0
0 0 0 0 0 0 0 0 0 0 0 0 0 0 0 0 0 0 0 0 0 0 0 0 0 0 0 0 0 0 0 0 0 0 0 0 -0 -0 0 -0 -0 -0 -0
0 0 0 0 0 0 0 0 0 0 0 0 0 0 0 0 0 0 0 0 0 0 0 0 0 0 0 0 0 0 0 0 0 -0 -0 -0 -0 -0 0 0 -0 -0 -0
0 0 0 0 0 0 0 0 0 0 0 0 0 0 0 0 0 0 0 0 0 0 0 0 0 0 0 0 0 0 0 0 -0 -0 -0 0 0 0 0 0 0 0 -0
0 0 0 0 0 0 0 0 0 0 0 0 0 0 0 0 0 0 0 0 0 0 0 0 0 0 0 0 0 0 0 0 -0 0 0 0 0 0 0 0 0 0 -0
0 0 0 0 0 0 0 0 0 0 0 0 0 0 0 0 0 0 0 0 0 0 -0 -0 0 0 -0 0 0 0 0 -0 -0 0 0 0 0 0 0 0 0 0 0
Wind_Speed_500mb
49 48 41 41 50 51 44 46 45 43 45 48 42 35 35 28 26 23 23 30 26 20 27 24 29 31 32 34 38 40 43 46 45 51 54 53 62 63 66 68 38 52 54
48 48 43 41 50 47 50 48 43 41 38 38 33 30 30 26 27 28 29 21 20 24 26 21 22 27 32 34 37 38 39 44 46 52 57 52 49 54 55 56 49 51 48
54 53 38 42 49 49 53 52 47 42 39 32 37 31 28 27 23 18 23 22 19 22 26 28 29 29 30 23 33 31 35 43 44 42 46 32 19 33 33 37 51 49 46
57 48 44 43 45 46 50 46 46 44 42 41 34 33 25 24 22 23 19 18 22 13 10 18 16 20 21 25 28 34 34 30 33 32 34 34 38 27 38 37 52 49 50
58 56 53 41 38 44 46 45 47 43 52 38 28 26 24 23 21 19 18 24 9 9 9 13 21 24 13 26 32 37 32 39 38 37 39 43 51 44 44 45 42 47 44
50 44 40 49 43 40 40 39 40 37 36 32 29 25 31 24 21 18 13 12 8 3 9 11 10 15 14 21 24 30 28 31 28 28 34 39 47 46 47 50 52 54 61
38 30 38 39 42 41 40 38 39 35 34 32 33 33 34 35 29 19 17 17 12 5 5 10 14 20 25 27 29 30 34 29 36 33 33 28 33 40 46 46 51 51 55
44 45 45 45 43 43 40 37 38 38 36 38 35 31 28 28 26 27 22 16 9 2 10 16 19 21 24 28 30 29 32 37 38 39 36 38 36 30 37 41 47 56 55
40 38 39 41 42 42 41 43 44 42 39 39 39 38 36 33 28 24 17 10 8 7 11 14 18 23 28 32 34 24 36 38 33 36 31 32 32 31 34 37 42 47 62
44 47 48 48 46 47 49 46 44 44 42 39 36 33 30 25 20 15 9 4 2 6 12 17 24 28 30 31 35 28 27 37 35 32 32 37 33 36 35 37 39 42 53
44 48 50 50 51 50 49 48 46 44 41 38 35 32 28 23 19 14 9 7 10 13 17 22 24 22 25 28 34 32 30 30 33 33 33 34 36 36 36 39 39 39 44
58 58 58 56 53 52 49 47 44 41 39 36 33 30 25 20 16 13 9 10 12 15 19 21 22 23 25 27 29 30 30 31 33 34 35 34 33 36 36 36 40 41 46
59 58 58 56 53 49 47 45 42 39 35 31 28 25 21 15 11 9 10 11 14 15 18 20 21 23 25 26 24 25 29 30 33 34 34 36 33 34 37 42 42 42 45
60 59 58 55 52 48 45 42 40 35 31 27 23 19 16 11 9 9 11 12 14 15 16 19 19 21 23 20 23 32 30 30 30 35 35 33 33 38 44 46 51 55 54
60 57 55 51 47 44 41 38 34 30 25 21 18 15 13 11 9 11 12 13 14 14 16 18 19 19 16 28 33 33 34 34 33 33 25 25 27 34 40 49 55 58 66
58 54 52 48 43 38 34 31 27 24 20 18 15 12 11 9 11 13 12 13 12 14 14 14 18 25 25 29 31 30 32 24 25 28 29 27 24 35 38 45 49 46 49
55 51 45 39 35 31 27 25 22 19 18 15 14 13 12 10 13 12 11 10 14 14 14 18 18 22 27 25 26 29 28 23 25 26 25 25 29 43 51 52 53 43 40
50 44 38 34 30 26 23 22 18 17 15 15 14 14 12 11 11 10 11 8 8 15 18 24 21 20 25 26 28 31 28 23 20 15 22 27 39 47 51 55 50 48 39
44 39 33 30 27 24 21 19 17 15 15 15 14 14 12 10 10 10 8 6 7 12 17 23 22 17 26 27 33 33 31 24 18 25 27 32 38 41 50 59 63 48 46
34 34 29 27 26 24 20 18 15 15 15 15 15 16 13 11 9 9 8 6 7 12 15 16 21 20 22 25 34 35 33 25 21 23 25 33 24 36 48 57 66 61 59
30 29 29 26 23 22 20 19 15 17 15 14 14 13 12 17 12 7 8 5 10 10 14 15 12 24 20 24 31 32 31 29 25 20 21 24 26 30 45 50 57 62 60
30 25 25 24 22 22 19 17 18 16 14 14 13 13 10 8 5 5 5 8 8 9 13 19 16 16 24 23 26 32 32 30 27 24 30 33 32 36 45 45 56 60 54
27 24 23 24 21 21 19 15 16 15 15 13 12 8 7 7 5 8 4 6 9 8 10 16 21 20 23 24 22 23 24 30 31 30 27 36 38 35 33 43 50 46 52
29 23 21 22 21 20 19 16 15 15 14 14 13 12 10 13 1 7 7 5 8 9 12 14 21 22 28 30 27 26 26 28 30 28 38 38 39 37 37 41 44 44 49
24 22 23 23 22 17 16 17 17 16 15 13 13 12 8 2 11 10 8 8 8 14 13 16 17 22 30 32 33 34 35 35 38 36 32 33 36 38 41 44 45 44 49
24 25 24 21 18 16 15 18 18 15 16 11 10 12 10 3 9 9 15 9 17 20 23 23 23 21 31 31 29 30 30 30 33 22 28 32 36 38 41 44 45 45 47
Wind_Direction_500mb
204 198 197 196 187 181 186 184 184 191 195 197 197 200 205 197 210 213 212 227 240 230 240 243 250 259 284 284 281 280 281 279 274 280 280 274 275 281 281 291 296 289 282
199 194 186 192 188 181 188 183 185 184 184 194 187 197 200 196 197 209 214 212 210 218 234 255 262 280 286 289 283 287 289 292 291 282 284 286 282 278 276 281 283 302 303
197 190 180 190 188 189 191 188 187 186 178 189 181 173 175 180 185 205 213 199 201 225 243 255 270 275 283 299 281 288 284 291 294 292 277 285 280 303 296 282 295 304 314
194 178 185 182 184 187 192 191 184 185 170 182 176 174 177 187 186 193 193 191 220 226 245 267 284 288 288 282 280 286 287 290 296 293 282 278 274 287 297 296 301 316 307
186 180 181 178 173 175 179 179 182 178 174 163 171 173 172 190 159 161 174 191 221 216 248 271 278 281 291 284 285 289 299 290 283 282 284 283 285 283 275 287 287 292 293
184 185 181 170 164 167 165 164 166 164 165 163 172 164 176 160 166 162 148 155 152 261 253 279 294 306 307 308 314 310 314 303 301 300 298 294 284 283 280 282 283 289 293
172 156 155 157 160 157 156 159 164 156 154 164 157 164 166 168 178 137 152 137 127 100 307 305 305 307 314 314 315 316 312 310 303 304 300 297 297 300 296 293 289 291 291
169 175 156 152 151 148 149 149 143 136 139 150 153 150 134 132 130 138 132 124 117 224 303 309 316 317 318 318 318 318 305 298 301 298 296 297 298 297 297 299 300 300 299
133 132 146 146 143 140 137 137 133 127 121 121 122 124 130 139 132 131 118 147 143 13 328 324 329 330 326 324 324 328 320 309 311 312 316 298 300 297 292 290 292 293 299
144 142 134 132 130 128 128 124 123 120 117 115 113 112 116 120 124 126 129 130 60 337 336 335 333 331 329 325 320 316 310 312 317 313 304 305 304 301 302 298 294 293 295
130 128 129 127 124 124 122 119 119 117 113 110 108 106 104 105 108 98 86 48 1 347 337 333 333 332 330 325 324 324 328 313 315 313 310 306 308 309 306 302 303 303 302
136 131 128 126 123 121 121 118 115 111 106 104 102 99 98 94 89 79 45 12 348 342 340 334 335 336 333 330 331 325 322 321 314 313 311 310 311 308 307 308 302 301 301
125 124 123 122 120 118 114 110 108 105 103 101 99 97 92 85 69 37 6 359 351 348 343 342 344 341 337 333 323 321 317 312 310 310 305 306 307 309 307 310 310 307 305
127 125 122 119 117 114 111 108 104 101 100 98 95 88 78 60 31 16 2 349 351 354 352 349 344 338 336 316 306 323 318 312 308 307 312 316 327 319 314 309 310 314 304
126 122 119 116 114 110 106 102 97 96 95 92 84 73 58 43 23 8 1 3 5 360 357 349 343 305 336 301 313 323 317 314 311 306 319 320 309 310 310 309 313 311 308
123 120 116 113 109 105 100 95 90 85 85 80 69 57 52 27 14 17 14 14 10 360 13 339 316 309 312 327 334 335 333 347 333 332 334 337 341 318 317 319 318 320 323
122 118 115 110 103 97 92 86 82 79 75 70 58 47 40 17 13 18 24 6 23 358 3 334 335 333 336 345 350 346 344 341 340 333 341 352 343 335 339 341 339 329 316
120 115 110 103 94 90 85 80 75 74 71 62 49 37 24 13 14 21 22 33 25 4 4 340 336 340 342 343 352 347 348 351 342 358 13 349 348 349 357 360 1 3 3
114 111 107 100 91 82 76 75 72 70 63 49 34 26 18 19 24 36 22 4 39 6 358 332 333 340 327 347 353 354 359 348 19 32 7 354 346 4 10 11 8 3 359
110 106 99 92 81 69 70 73 67 60 47 35 27 35 32 28 43 37 17 356 36 9 358 345 337 343 344 352 354 357 0 14 48 34 354 341 352 18 15 16 12 7 9
108 104 95 82 73 68 66 63 53 41 28 25 31 26 26 49 12 7 344 353 18 14 5 355 10 346 353 5 0 0 16 27 41 12 349 359 5 20 11 10 8 8 12
98 87 85 80 73 69 65 58 43 26 23 26 27 20 20 19 336 358 339 16 25 360 3 355 7 355 359 12 360 18 31 25 10 1 3 3 5 24 9 8 8 2 11
96 88 80 77 67 61 63 55 32 19 22 28 25 5 35 28 13 355 27 19 9 15 360 352 353 3 355 8 8 17 24 23 16 11 11 14 5 18 6 8 7 5 359
90 91 90 82 73 62 51 44 28 23 25 23 16 3 20 92 93 114 68 3 3 16 1 3 351 355 345 354 2 1 13 14 10 2 7 5 10 10 2 7 6 4 359
101 99 92 81 71 60 49 40 30 33 38 26 19 14 17 173 60 301 213 60 338 349 359 351 4 341 343 348 351 354 350 355 359 359 356 359 4 4 360 3 1 360 358
103 91 87 83 75 62 45 40 31 35 49 32 27 20 39 19 176 97 334 284 323 324 321 327 338 340 335 336 342 347 343 347 345 4 1 2 4 3 360 358 357 357 355
Wind_Speed_850mb
49 48 41 41 50 51 44 46 45 43 45 48 42 35 35 28 26 23 23 30 26 20 27 24 29 31 32 34 38 40 43 46 45 51 54 53 62 63 66 68 38 52 54
48 48 43 41 50 47 50 48 43 41 38 38 33 30 30 26 27 28 29 21 20 24 26 21 22 27 32 34 37 38 39 44 46 52 57 52 49 54 55 56 49 51 48
54 53 38 42 49 49 53 52 47 42 39 32 37 31 28 27 23 18 23 22 19 22 26 28 29 29 30 23 33 31 35 43 44 42 46 32 19 33 33 37 51 49 46
57 48 44 43 45 46 50 46 46 44 42 41 34 33 25 24 22 23 19 18 22 13 10 18 16 20 21 25 28 34 34 30 33 32 34 34 38 27 38 37 52 49 50
58 56 53 41 38 44 46 45 47 43 52 38 28 26 24 23 21 19 18 24 9 9 9 13 21 24 13 26 32 37 32 39 38 37 39 43 51 44 44 45 42 47 44
50 44 40 49 43 40 40 39 40 37 36 32 29 25 31 24 21 18 13 12 8 3 9 11 10 15 14 21 24 30 28 31 28 28 34 39 47 46 47 50 52 54 61
38 30 38 39 42 41 40 38 39 35 34 32 33 33 34 35 29 19 17 17 12 5 5 10 14 20 25 27 29 30 34 29 36 33 33 28 33 40 46 46 51 51 55
44 45 45 45 43 43 40 37 38 38 36 38 35 31 28 28 26 27 22 16 9 2 10 16 19 21 24 28 30 29 32 37 38 39 36 38 36 30 37 41 47 56 55
40 38 39 41 42 42 41 43 44 42 39 39 39 38 36 33 28 24 17 10 8 7 11 14 18 23 28 32 34 24 36 38 33 36 31 32 32 31 34 37 42 47 62
44 47 48 48 46 47 49 46 44 44 42 39 36 33 30 25 20 15 9 4 2 6 12 17 24 28 30 31 35 28 27 37 35 32 32 37 33 36 35 37 39 42 53
44 48 50 50 51 50 49 48 46 44 41 38 35 32 28 23 19 14 9 7 10 13 17 22 24 22 25 28 34 32 30 30 33 33 33 34 36 36 36 39 39 39 44
58 58 58 56 53 52 49 47 44 41 39 36 33 30 25 20 16 13 9 10 12 15 19 21 22 23 25 27 29 30 30 31 33 34 35 34 33 36 36 36 40 41 46
59 58 58 56 53 49 47 45 42 39 35 31 28 25 21 15 11 9 10 11 14 15 18 20 21 23 25 26 24 25 29 30 33 34 34 36 33 34 37 42 42 42 45
60 59 58 55 52 48 45 42 40 35 31 27 23 19 16 11 9 9 11 12 14 15 16 19 19 21 23 20 23 32 30 30 30 35 35 33 33 38 44 46 51 55 54
60 57 55 51 47 44 41 38 34 30 25 21 18 15 13 11 9 11 12 13 14 14 16 18 19 19 16 28 33 33 34 34 33 33 25 25 27 34 40 49 55 58 66
58 54 52 48 43 38 34 31 27 24 20 18 15 12 11 9 11 13 12 13 12 14 14 14 18 25 25 29 31 30 32 24 25 28 29 27 24 35 38 45 49 46 49
55 51 45 39 35 31 27 25 22 19 18 15 14 13 12 10 13 12 11 10 14 14 14 18 18 22 27 25 26 29 28 23 25 26 25 25 29 43 51 52 53 43 40
50 44 38 34 30 26 23 22 18 17 15 15 14 14 12 11 11 10 11 8 8 15 18 24 21 20 25 26 28 31 28 23 20 15 22 27 39 47 51 55 50 48 39
44 39 33 30 27 24 21 19 17 15 15 15 14 14 12 10 10 10 8 6 7 12 17 23 22 17 26 27 33 33 31 24 18 25 27 32 38 41 50 59 63 48 46
34 34 29 27 26 24 20 18 15 15 15 15 15 16 13 11 9 9 8 6 7 12 15 16 21 20 22 25 34 35 33 25 21 23 25 33 24 36 48 57 66 61 59
30 29 29 26 23 22 20 19 15 17 15 14 14 13 12 17 12 7 8 5 10 10 14 15 12 24 20 24 31 32 31 29 25 20 21 24 26 30 45 50 57 62 60
30 25 25 24 22 22 19 17 18 16 14 14 13 13 10 8 5 5 5 8 8 9 13 19 16 16 24 23 26 32 32 30 27 24 30 33 32 36 45 45 56 60 54
27 24 23 24 21 21 19 15 16 15 15 13 12 8 7 7 5 8 4 6 9 8 10 16 21 20 23 24 22 23 24 30 31 30 27 36 38 35 33 43 50 46 52
29 23 21 22 21 20 19 16 15 15 14 14 13 12 10 13 1 7 7 5 8 9 12 14 21 22 28 30 27 26 26 28 30 28 38 38 39 37 37 41 44 44 49
24 22 23 23 22 17 16 17 17 16 15 13 13 12 8 2 11 10 8 8 8 14 13 16 17 22 30 32 33 34 35 35 38 36 32 33 36 38 41 44 45 44 49
24 25 24 21 18 16 15 18 18 15 16 11 10 12 10 3 9 9 15 9 17 20 23 23 23 21 31 31 29 30 30 30 33 22 28 32 36 38 41 44 45 45 47
Wind_Direction_850mb
204 198 197 196 187 181 186 184 184 191 195 197 197 200 205 197 210 213 212 227 240 230 240 243 250 259 284 284 281 280 281 279 274 280 280 274 275 281 281 291 296 289 282
199 194 186 192 188 181 188 183 185 184 184 194 187 197 200 196 197 209 214 212 210 218 234 255 262 280 286 289 283 287 289 292 291 282 284 286 282 278 276 281 283 302 303
197 190 180 190 188 189 191 188 187 186 178 189 181 173 175 180 185 205 213 199 201 225 243 255 270 275 283 299 281 288 284 291 294 292 277 285 280 303 296 282 295 304 314
194 178 185 182 184 187 192 191 184 185 170 182 176 174 177 187 186 193 193 191 220 226 245 267 284 288 288 282 280 286 287 290 296 293 282 278 274 287 297 296 301 316 307
186 180 181 178 173 175 179 179 182 178 174 163 171 173 172 190 159 161 174 191 221 216 248 271 278 281 291 284 285 289 299 290 283 282 284 283 285 283 275 287 287 292 293
184 185 181 170 164 167 165 164 166 164 165 163 172 164 176 160 166 162 148 155 152 261 253 279 294 306 307 308 314 310 314 303 301 300 298 294 284 283 280 282 283 289 293
172 156 155 157 160 157 156 159 164 156 154 164 157 164 166 168 178 137 152 137 127 100 307 305 305 307 314 314 315 316 312 310 303 304 300 297 297 300 296 293 289 291 291
169 175 156 152 151 148 149 149 143 136 139 150 153 150 134 132 130 138 132 124 117 224 303 309 316 317 318 318 318 318 305 298 301 298 296 297 298 297 297 299 300 300 299
133 132 146 146 143 140 137 137 133 127 121 121 122 124 130 139 132 131 118 147 143 13 328 324 329 330 326 324 324 328 320 309 311 312 316 298 300 297 292 290 292 293 299
144 142 134 132 130 128 128 124 123 120 117 115 113 112 116 120 124 126 129 130 60 337 336 335 333 331 329 325 320 316 310 312 317 313 304 305 304 301 302 298 294 293 295
130 128 129 127 124 124 122 119 119 117 113 110 108 106 104 105 108 98 86 48 1 347 337 333 333 332 330 325 324 324 328 313 315 313 310 306 308 309 306 302 303 303 302
136 131 128 126 123 121 121 118 115 111 106 104 102 99 98 94 89 79 45 12 348 342 340 334 335 336 333 330 331 325 322 321 314 313 311 310 311 308 307 308 302 301 301
125 124 123 122 120 118 114 110 108 105 103 101 99 97 92 85 69 37 6 359 351 348 343 342 344 341 337 333 323 321 317 312 310 310 305 306 307 309 307 310 310 307 305
127 125 122 119 117 114 111 108 104 101 100 98 95 88 78 60 31 16 2 349 351 354 352 349 344 338 336 316 306 323 318 312 308 307 312 316 327 319 314 309 310 314 304
126 122 119 116 114 110 106 102 97 96 95 92 84 73 58 43 23 8 1 3 5 360 357 349 343 305 336 301 313 323 317 314 311 306 319 320 309 310 310 309 313 311 308
123 120 116 113 109 105 100 95 90 85 85 80 69 57 52 27 14 17 14 14 10 360 13 339 316 309 312 327 334 335 333 347 333 332 334 337 341 318 317 319 318 320 323
122 118 115 110 103 97 92 86 82 79 75 70 58 47 40 17 13 18 24 6 23 358 3 334 335 333 336 345 350 346 344 341 340 333 341 352 343 335 339 341 339 329 316
120 115 110 103 94 90 85 80 75 74 71 62 49 37 24 13 14 21 22 33 25 4 4 340 336 340 342 343 352 347 348 351 342 358 13 349 348 349 357 360 1 3 3
114 111 107 100 91 82 76 75 72 70 63 49 34 26 18 19 24 36 22 4 39 6 358 332 333 340 327 347 353 354 359 348 19 32 7 354 346 4 10 11 8 3 359
110 106 99 92 81 69 70 73 67 60 47 35 27 35 32 28 43 37 17 356 36 9 358 345 337 343 344 352 354 357 0 14 48 34 354 341 352 18 15 16 12 7 9
108 104 95 82 73 68 66 63 53 41 28 25 31 26 26 49 12 7 344 353 18 14 5 355 10 346 353 5 0 0 16 27 41 12 349 359 5 20 11 10 8 8 12
98 87 85 80 73 69 65 58 43 26 23 26 27 20 20 19 336 358 339 16 25 360 3 355 7 355 359 12 360 18 31 25 10 1 3 3 5 24 9 8 8 2 11
96 88 80 77 67 61 63 55 32 19 22 28 25 5 35 28 13 355 27 19 9 15 360 352 353 3 355 8 8 17 24 23 16 11 11 14 5 18 6 8 7 5 359
90 91 90 82 73 62 51 44 28 23 25 23 16 3 20 92 93 114 68 3 3 16 1 3 351 355 345 354 2 1 13 14 10 2 7 5 10 10 2 7 6 4 359
101 99 92 81 71 60 49 40 30 33 38 26 19 14 17 173 60 301 213 60 338 349 359 351 4 341 343 348 351 354 350 355 359 359 356 359 4 4 360 3 1 360 358
103 91 87 83 75 62 45 40 31 35 49 32 27 20 39 19 176 97 334 284 323 324 321 327 338 340 335 336 342 347 343 347 345 4 1 2 4 3 360 358 357 357 355